Cloud_Cover
0 6 7 80 0 91 99 100 100 100 100 100 100 100 100 100 100 100 100 100 99 86 97 99 100 100 100 6 5 5 5 2 7 42 5 0 0 0 5 5 5 0 0 0 0 0 2 5 1
5 7 5 5 0 16 42 100 100 100 100 100 100 100 100 100 100 100 100 100 100 100 100 100 90 40 95 14 5 5 62 64 22 44 5 4 1 5 5 5 0 0 0 1 5 5 5 0 0
4 23 51 4 0 1 84 100 100 100 100 100 100 100 100 100 100 100 100 100 100 100 100 100 100 100 28 56 56 87 26 66 40 100 5 5 52 15 4 2 0 0 4 6 10 58 59 0 0
5 5 21 5 61 3 90 100 100 100 100 100 100 100 100 100 100 100 100 100 100 100 100 83 98 100 65 16 6 5 46 81 32 50 24 100 100 1 4 0 4 5 6 16 56 54 5 0 0
5 0 22 5 68 0 46 100 100 100 100 100 100 100 100 100 100 100 100 100 100 100 100 51 30 65 33 5 56 74 71 39 92 96 99 79 25 5 5 5 5 5 8 70 95 5 0 0 0
5 5 17 92 7 5 15 100 100 100 100 100 100 100 100 100 100 100 99 100 97 94 91 49 88 14 40 46 100 100 57 42 97 56 31 56 4 12 5 5 16 20 89 28 9 4 4 0 0
5 21 82 22 61 95 98 100 100 100 100 100 100 100 100 100 100 100 100 100 100 98 93 98 87 100 100 100 100 100 97 80 100 97 5 5 22 88 92 70 100 100 38 3 4 0 0 0 0
32 4 5 49 80 100 100 100 100 100 100 100 100 100 100 100 100 100 100 100 100 100 100 100 100 100 100 100 100 100 100 100 90 93 62 100 100 100 100 100 100 24 6 6 64 0 0 0 0
5 5 6 67 100 100 100 100 100 100 100 100 100 100 100 100 100 100 100 100 100 100 100 100 100 100 93 100 100 100 100 86 100 100 100 100 100 100 100 98 53 5 5 4 5 1 3 0 0
75 81 89 100 99 100 100 100 100 100 100 100 100 100 100 100 100 100 100 100 100 100 100 100 100 100 100 100 99 80 63 98 100 100 100 100 100 100 100 32 15 3 5 0 0 0 4 0 0
34 92 99 84 100 98 100 100 100 100 100 100 100 100 100 100 100 100 100 100 100 100 100 100 100 100 100 98 100 100 92 100 100 100 100 100 100 100 6 0 5 2 4 1 5 0 0 4 3
99 99 100 100 100 100 100 100 100 100 100 100 100 100 100 100 100 100 100 100 100 100 100 100 100 100 100 100 100 100 100 100 100 100 100 100 14 7 5 1 24 61 5 5 35 5 0 0 0
100 98 100 100 100 100 100 100 100 100 100 100 100 100 100 100 100 100 100 100 100 100 100 100 100 100 100 100 100 100 100 100 100 92 22 0 2 5 4 5 5 5 0 1 0 0 0 0 0
100 98 100 100 100 100 100 100 100 100 100 100 100 100 100 100 100 100 100 100 100 100 100 100 100 100 100 100 100 100 100 100 100 95 100 5 5 5 5 5 5 1 1 5 5 5 0 0 0
100 94 99 89 92 96 100 100 100 100 100 100 100 100 100 100 100 100 100 100 95 100 100 100 100 92 99 96 98 99 100 100 100 100 51 100 25 84 94 88 27 5 5 5 5 5 5 1 0
90 84 100 98 100 100 88 86 95 98 96 98 100 100 100 100 100 100 100 99 96 97 100 100 81 77 98 100 100 100 100 100 100 97 100 100 96 100 100 71 5 30 20 5 5 5 5 5 0
56 82 82 92 72 16 5 5 20 22 24 48 50 45 16 5 43 50 39 11 100 100 100 100 95 79 72 100 100 100 100 100 100 100 100 71 82 96 56 39 66 100 39 5 5 5 4 0 0
51 24 8 23 43 22 7 18 8 5 6 14 83 90 78 39 31 17 35 68 100 86 100 95 82 100 100 100 100 100 100 100 100 100 100 100 28 48 97 99 44 5 5 5 5 1 0 0 0
5 5 61 5 2 5 20 44 38 24 19 5 5 5 5 5 3 4 4 40 66 15 87 100 100 100 95 80 88 100 98 100 92 69 24 5 15 5 23 38 26 5 4 0 0 0 0 0 0
0 0 2 5 5 4 3 5 5 5 25 50 16 8 18 13 53 48 48 12 5 4 8 70 48 2 20 39 20 57 50 20 5 5 5 27 28 68 84 7 2 0 0 0 1 2 5 5 0
4 2 3 3 4 2 0 4 16 53 88 32 41 96 86 65 17 6 47 52 5 5 5 5 5 4 0 5 1 4 0 1 5 5 5 5 19 7 2 0 0 3 5 5 5 5 5 15 5
1 3 5 3 4 20 59 14 7 8 11 12 16 16 6 5 6 92 76 12 60 5 5 23 89 89 22 5 5 0 0 1 0 0 0 0 0 0 0 3 5 5 23 28 29 5 1 0 13
0 4 52 55 61 41 5 4 0 0 0 0 0 0 5 5 48 54 100 89 94 98 98 46 12 5 5 0 0 0 0 0 0 0 0 0 4 5 5 5 5 5 5 4 8 5 5 1 4
4 4 3 1 0 0 0 0 0 0 0 3 5 5 5 5 1 5 34 46 100 97 100 15 3 5 4 1 0 0 2 1 1 3 1 5 5 5 1 5 5 25 16 5 32 87 16 0 2
0 0 0 0 2 0 0 0 0 0 0 2 5 5 5 0 0 14 100 78 35 6 5 4 4 2 0 0 5 5 5 4 5 5 5 5 2 4 44 68 12 5 5 32 46 85 100 89 40
0 0 0 0 5 0 0 0 0 0 0 0 4 1 0 4 63 68 25 0 5 4 0 5 5 5 6 5 5 0 0 2 3 1 4 6 55 37 5 2 5 5 5 13 79 100 100 86 32
0 0 0 0 0 0 0 0 0 0 0 0 0 0 5 33 4 0 5 5 1 5 5 5 6 49 8 5 5 5 5 5 5 5 24 16 5 5 5 4 5 80 5 96 96 83 62 74 93
0 0 0 0 0 0 0 0 0 0 0 0 0 0 2 0 3 5 5 4 5 5 5 5 31 71 38 82 87 70 41 5 5 5 5 5 4 0 5 22 84 68 96 99 96 17 100 81 14
0 0 0 0 1 2 1 0 0 0 0 0 0 0 5 5 5 9 5 7 18 10 40 87 93 82 100 100 33 5 1 0 5 5 5 4 0 0 16 88 72 32 27 6 4 5 5 5 18
0 0 0 0 0 14 5 1 0 0 0 0 0 0 4 5 53 6 5 74 82 100 100 61 80 100 100 72 5 0 4 5 5 5 5 2 4 5 86 28 79 5 4 5 5 3 19 5 5